sat.trackr.live / text

‹ back to catalog

COSMOS 2557 (706K)

NORAD 52984 · 2022-075A

PAYLOAD ACTIVE UNKNOWN

§ Identity

Operator
Country
CIS
Launch date
2022-07-07
Launch site
PLMSC
Launch vehicle
Mass (kg)
RCS (m²)

Purposes: earth_obs, nav

External: N2YO · Heavens-Above · Gunter

§ Orbital elements

Epoch: 2026-05-22T07:11:30.302592Z

Period
675.73 min
Inclination
64.3148°
Eccentricity
0.0010092
Mean motion
2.13101899 rev/d
Perigee alt
19,104.2 km
Apogee alt
19,155.6 km
Semi-major
25,508.0 km
B*
0.0000e+0
RAAN
315.3974°
Arg perigee
278.3503°
Mean anomaly
81.5318°
Rev number
3,016

§ Raw data

COSMOS 2557 (706K)1 52984U 22075A   26142.29965628 -.00000040  00000+0  00000+0 0  99992 52984  64.3148 315.3974 0010092 278.3503  81.5318  2.13101899 30168

JSON: /api/v1/satellites/52984 · /tle

For live sub-satellite position, see the globe view (requires WebGL).

§ Visibility from observer

Set your observer location to see the next 7 days of passes ≥ 10°. The values pass through the URL so the page stays shareable.

No JS? Fill the form by hand. The geolocation button needs JavaScript.